Location: Michelbach Markt
(48.1000°N, 15.7500°E)
Time: 18:48:55
(UTC+01:00)

ISS - Visible Passes

Search period start: 30 November 2023 00:00
Search period end: 10 December 2023 00:00
Orbit: 416 x 417 km, 51.6° (Epoch: 30 November)

Date Brightness Start Highest point End Pass type
(mag) Time Alt. Az. Time Alt. Az. Time Alt. Az.
30 Nov -3.7 17:29:52 10° WNW 17:33:13 61° NNE 17:34:46 28° E visible
30 Nov -0.7 19:06:45 10° WNW 19:07:41 16° W 19:07:41 16° W visible
01 Dec -3.4 16:41:27 10° WNW 16:44:44 50° N 16:48:01 10° E visible
01 Dec -3.2 18:18:15 10° WNW 18:21:29 53° SW 18:21:29 53° SW visible
02 Dec -3.7 17:29:45 10° WNW 17:33:07 79° SSW 17:35:23 19° ESE visible
02 Dec -0.6 19:07:16 10° W 19:08:19 14° WSW 19:08:19 14° WSW visible
03 Dec -3.8 16:41:14 10° WNW 16:44:35 76° NNE 16:47:57 10° ESE visible
03 Dec -1.6 18:18:17 10° W 18:21:05 25° SW 18:22:24 19° S visible
04 Dec -2.3 17:29:30 10° WNW 17:32:38 37° SW 17:35:46 10° SE visible
05 Dec -3.0 16:40:47 10° WNW 16:44:06 57° SSW 16:47:22 10° SE visible
05 Dec -0.5 18:19:16 10° WSW 18:20:13 11° SW 18:21:10 10° SSW visible
06 Dec -0.8 17:29:28 10° W 17:31:46 17° SW 17:34:03 10° S visible
07 Dec -1.3 16:40:19 10° W 16:43:11 26° SW 16:46:03 10° SSE visible
09 Dec -0.2 16:40:33 10° WSW 16:41:54 12° SW 16:43:14 10° SSW visible
